[[{"header":{"parameterUnit":"m.s-1","parameterCategory":2,"la1":30.2991,"la2":30.254,"lo1":-89.0895,"lo2":-89.0444,"dy":0.0017,"dx":0.0017,"nx":28,"ny":28,"refTime":"2023-11-16T09:00:00:Z","depth":"0","parameterNumber":2,"parameterNumberName":"U-component_of_CURRENTS"},"data":[0,0,0,0,0,0,0,0,0,0,0,0,0,0,0,0,0,0,0,0,0,0,0,0,0,0,0,0,0,0,0,0,0,0,0,0,0,0,0,0,0,0,0,0,0,0,0,0,0,0,0,0,0,0,0,0,0,0,0.4578,0.4578,0,0.4532,0.4531,0.453,0.4446,0.4445,0.4444,0.4443,0.4346,0.4345,0.4343,0,0,0,0,0,0,0,0,0,0,0,0,0,0.4588,0.4588,0.4578,0.4578,0.4578,0.4532,0.4531,0.4529,0.4446,0.4445,0.4444,0.4442,0.4347,0.4345,0.4343,0,0,0,0,0,0,0,0,0,0,0,0,0,0.4561,0.4588,0.4578,0.4536,0.4532,0.4532,0.4531,0.4529,0.4446,0.4445,0.4443,0.4442,0.4347,0.4345,0.4343,0.4359,0,0,0.4335,0.4334,0,0,0,0,0,0,0,0,0.4563,0.456,0.4542,0.4539,0.4534,0.4498,0.4499,0.4472,0.4447,0.4472,0.4443,0.4441,0.4398,0.4391,0.4378,0.4354,0.435,0.4335,0.4334,0.4332,0.4332,0,0,0,0,0,0,0,0.4565,0.4562,0.4553,0.4542,0.4538,0.4517,0.4511,0.4493,0.4438,0.447,0.4465,0.447,0.4394,0.438,0.4375,0.4349,0.4335,0.4333,0.4331,0.433,0.4368,0.437,0,0,0,0,0,0,0.4585,0.4564,0.4555,0.4553,0.4552,0.4519,0.4511,0.4506,0.444,0.443,0.4472,0.4467,0.4385,0.4378,0.4371,0.4416,0.4332,0.433,0.4329,0.4366,0.4369,0.4371,0,0,0,0,0,0,0.4585,0.4584,0.4557,0.4563,0.4558,0.4521,0.4516,0.4507,0.4504,0.4443,0.443,0.4481,0.4384,0.4374,0.4368,0.441,0.4329,0.4327,0.4363,0.4367,0.437,0.4486,0,0,0,0,0,0,0.4586,0.4584,0.459,0.4564,0.4559,0.4578,0.4517,0.4507,0.4512,0.4505,0.4447,0.4435,0.4382,0.4372,0.4365,0.4405,0.4325,0.436,0.4364,0.4369,0.4479,0.4494,0.4506,0,0,0,0,0,0.4586,0.4597,0.459,0.459,0.4567,0.458,0.4576,0.4539,0.4514,0.4528,0.4483,0.4437,0.4397,0.4372,0.4364,0.4404,0.4357,0.4363,0.4368,0.4474,0.4491,0.4505,0,0,0,0,0,0,0.4593,0.4589,0.4581,0.4587,0.4597,0.4569,0.4576,0.456,0.4537,0.4525,0.446,0.4447,0.4463,0.4424,0.4398,0.4432,0.4374,0.4378,0.4457,0.4472,0.4485,0.449,0.4323,0,0,0,0,0,0.4605,0.4616,0.4614,0.4623,0.4632,0.4612,0.4614,0.4597,0.4575,0.4562,0.4524,0.4491,0.4481,0.4467,0.4448,0.4462,0.4445,0.4487,0.45,0.4511,0.4513,0.4539,0.4554,0.4389,0.4389,0.4389,0,0,0.4612,0.4612,0.4618,0.4629,0.4626,0.4643,0.4607,0.4623,0.4635,0.4558,0.4558,0.4539,0.4498,0.4511,0.4515,0.448,0.4554,0.4518,0.4528,0.4523,0.4546,0.4562,0.4576,0.4393,0.4392,0.4392,0,0,0.4628,0.4636,0.4648,0.4666,0.4682,0.4679,0.4696,0.4688,0.4683,0.4691,0.4647,0.4654,0.4622,0.4608,0.4595,0.4674,0.463,0.4677,0.4736,0.4762,0.4776,0.4787,0.4802,0.4814,0.4675,0.4675,0.4675,0,0.4632,0.4641,0.4658,0.4677,0.469,0.4703,0.4719,0.4733,0.4724,0.4732,0.4705,0.4696,0.4669,0.4692,0.4719,0.4704,0.4706,0.4676,0.4779,0.479,0.48,0.4812,0.4824,0.4681,0.4681,0.468,0.4679,0,0.4654,0.4667,0.4683,0.4708,0.4736,0.4757,0.4785,0.4814,0.4814,0.4817,0.485,0.482,0.4809,0.4821,0.4788,0.4854,0.483,0.48,0.4737,0.4823,0.4831,0.4841,0.469,0.4688,0.4686,0.4685,0,0,0.462,0.4681,0.4682,0.4689,0.4749,0.4759,0.4824,0.4865,0.4892,0.4912,0.4938,0.4954,0.4947,0.4934,0.4914,0.494,0.5021,0.4905,0.4904,0.4916,0.508,0.5067,0.5076,0.5011,0.5013,0.5014,0.5062,0,0.4617,0.4644,0.4688,0.4716,0.4727,0.4786,0.4832,0.4884,0.4926,0.4964,0.4987,0.5,0.499,0.4984,0.5022,0.5019,0.5051,0.501,0.4996,0.4996,0.4971,0.5088,0.4951,0.4983,0.5072,0.5073,0.5074,0,0.4596,0.462,0.464,0.4692,0.4704,0.4737,0.4809,0.4859,0.4956,0.499,0.5048,0.5056,0.5116,0.5079,0.5144,0.5121,0.5116,0.5112,0.5113,0.5063,0.5002,0.4908,0.4997,0.4903,0.5089,0.5088,0.5087,0,0.4513,0.4571,0.4578,0.4598,0.4674,0.4704,0.4758,0.4859,0.4899,0.5014,0.5042,0.5123,0.5141,0.518,0.52,0.5173,0.5261,0.521,0.5195,0.5192,0.5052,0.5035,0.504,0.5253,0.5253,0.5253,0.5253,0,0.446,0.4459,0.4537,0.4536,0.4548,0.4642,0.4678,0.4763,0.4876,0.4927,0.5038,0.5088,0.5168,0.5224,0.5237,0.5271,0.5296,0.5234,0.5219,0.5092,0.5078,0.4967,0.4911,0.5255,0.5255,0.5254,0.5254,0,0.4338,0.4398,0.4393,0.4473,0.4498,0.4504,0.4612,0.4641,0.4784,0.4861,0.4895,0.5067,0.5176,0.5244,0.5314,0.5302,0.5201,0.5327,0.5179,0.5147,0.5033,0.4988,0.4755,0.4611,0.5318,0.5318,0.5318,0,0.4269,0.4255,0.4309,0.4304,0.4334,0.4377,0.4402,0.4564,0.4615,0.4842,0.4858,0.5026,0.5128,0.5266,0.5309,0.5358,0.5189,0.522,0.5145,0.5041,0.498,0.4751,0.463,0.5003,0.5001,0.4999,0.4997,0,0.4118,0.4135,0.414,0.4142,0.4157,0.4183,0.4256,0.4288,0.449,0.4572,0.4727,0.4849,0.5068,0.5108,0.5221,0.523,0.4996,0.5181,0.5102,0.4777,0.4494,0.4343,0.4955,0.498,0.4981,0.4983,0.4984,0.4984,0.3981,0.3947,0.3957,0.3946,0.3965,0.3984,0.3963,0.4072,0.4145,0.4266,0.4506,0.4633,0.4867,0.5042,0.5019,0.4954,0.4882,0.4834,0.4802,0.459,0.4403,0.4993,0.4987,0.4988,0.499,0.4991,0.4992,0,0.3779,0.3775,0.3761,0.3741,0.3699,0.3789,0.3835,0.3803,0.3822,0.4027,0.4145,0.4394,0.4498,0.4654,0.4749,0.4616,0.4356,0.4494,0.4142,0.4052,0.4623,0.4567,0.4433,0.4433,0.4433,0.4434,0.4434,0.4434,0.3669,0.3588,0.3596,0.3478,0.3471,0.3386,0.3385,0.3388,0.3486,0.3582,0.3718,0.392,0.4295,0.4499,0.4452,0.4344,0.4007,0.3833,0.3785,0.4236,0.4264,0.4291,0.4227,0.4024,0.4024,0.3044,0.3037,0.3032]},{"header":{"parameterUnit":"m.s-1","parameterCategory":2,"la1":30.2991,"la2":30.254,"lo1":-89.0895,"lo2":-89.0444,"dy":0.0017,"dx":0.0017,"nx":28,"ny":28,"refTime":"2023-11-16T09:00:00:Z","depth":"0","parameterNumber":3,"parameterNumberName":"V-component_of_CURRENTS"},"data":[0,0,0,0,0,0,0,0,0,0,0,0,0,0,0,0,0,0,0,0,0,0,0,0,0,0,0,0,0,0,0,0,0,0,0,0,0,0,0,0,0,0,0,0,0,0,0,0,0,0,0,0,0,0,0,0,0,0,-0.0099,-0.01,0,-0.015,-0.0151,-0.0152,-0.018,-0.018,-0.018,-0.018,-0.0227,-0.0228,-0.0229,0,0,0,0,0,0,0,0,0,0,0,0,0,-0.0067,-0.0067,-0.0099,-0.01,-0.01,-0.015,-0.0151,-0.0152,-0.018,-0.018,-0.018,-0.018,-0.0227,-0.0228,-0.023,0,0,0,0,0,0,0,0,0,0,0,0,0,-0.0096,-0.0067,-0.0099,-0.012,-0.0122,-0.015,-0.0151,-0.0152,-0.018,-0.018,-0.018,-0.018,-0.0226,-0.0228,-0.023,-0.0241,0,0,-0.0235,-0.0236,0,0,0,0,0,0,0,0,-0.0094,-0.0097,-0.0116,-0.0118,-0.0121,-0.0158,-0.0157,-0.0181,-0.018,-0.0159,-0.018,-0.018,-0.0203,-0.0207,-0.0218,-0.0243,-0.0245,-0.0236,-0.0237,-0.0237,-0.0238,0,0,0,0,0,0,0,-0.0092,-0.0095,-0.012,-0.0117,-0.012,-0.0141,-0.0144,-0.0162,-0.0181,-0.0161,-0.0163,-0.0167,-0.0205,-0.0216,-0.0219,-0.0246,-0.0236,-0.0237,-0.0238,-0.0239,-0.0275,-0.0275,0,0,0,0,0,0,-0.0082,-0.0093,-0.0118,-0.0122,-0.0107,-0.0141,-0.0145,-0.0147,-0.0181,-0.0186,-0.0167,-0.0168,-0.0212,-0.0217,-0.0221,-0.0211,-0.0237,-0.0239,-0.024,-0.0276,-0.0275,-0.0275,0,0,0,0,0,0,-0.0081,-0.0084,-0.0116,-0.0108,-0.0114,-0.0141,-0.0143,-0.0148,-0.0157,-0.0185,-0.0191,-0.017,-0.0213,-0.0218,-0.0226,-0.0214,-0.024,-0.0242,-0.0276,-0.0275,-0.0275,-0.0207,0,0,0,0,0,0,-0.008,-0.0083,-0.0082,-0.0107,-0.0114,-0.012,-0.0143,-0.0149,-0.0159,-0.0161,-0.019,-0.0195,-0.0213,-0.0223,-0.0228,-0.0217,-0.0243,-0.0276,-0.0276,-0.0275,-0.021,-0.0205,-0.02,0,0,0,0,0,-0.0079,-0.0068,-0.0082,-0.0085,-0.0111,-0.012,-0.0124,-0.0145,-0.0159,-0.0155,-0.0175,-0.0194,-0.0225,-0.0224,-0.023,-0.0219,-0.0276,-0.0276,-0.0275,-0.0212,-0.0206,-0.0201,0,0,0,0,0,0,-0.0052,-0.0071,-0.0086,-0.0082,-0.0097,-0.0124,-0.0121,-0.0142,-0.0157,-0.0155,-0.0189,-0.0194,-0.02,-0.0221,-0.0219,-0.0231,-0.0255,-0.0256,-0.0205,-0.0199,-0.0195,-0.016,-0.0245,0,0,0,0,0,-0.0047,-0.0042,-0.0068,-0.0063,-0.0067,-0.0096,-0.0104,-0.0117,-0.0134,-0.0141,-0.0165,-0.0188,-0.0205,-0.0209,-0.023,-0.0231,-0.0254,-0.0231,-0.0226,-0.0222,-0.0199,-0.0229,-0.0225,-0.0274,-0.0274,-0.0274,0,0,-0.0035,-0.0044,-0.0043,-0.0057,-0.0069,-0.006,-0.01,-0.01,-0.009,-0.0143,-0.0138,-0.0174,-0.0204,-0.0206,-0.021,-0.0219,-0.0223,-0.0222,-0.0218,-0.0197,-0.0228,-0.0223,-0.0219,-0.0274,-0.0274,-0.0274,0,0,0.0002,-0.0015,0.0003,-0.0004,-0.0016,-0.0031,-0.0029,-0.0055,-0.0061,-0.0069,-0.0103,-0.0125,-0.0156,-0.0169,-0.0181,-0.0163,-0.0201,-0.018,-0.0121,-0.0151,-0.0146,-0.0143,-0.0171,-0.0171,-0.0172,-0.0172,-0.0172,0,0.0019,0.004,0.0007,0.0025,0.0035,-0.0012,0.0018,0.0001,-0.0025,-0.0017,-0.0055,-0.0097,-0.0134,-0.0122,-0.0123,-0.015,-0.0175,-0.0137,-0.0143,-0.014,-0.0137,-0.0168,-0.0168,-0.0169,-0.0169,-0.017,-0.017,0,0.007,0.0087,0.0101,0.0111,0.0111,0.0133,0.0108,0.0106,0.0081,0.0063,0.0056,-0.0004,-0.0022,-0.0051,-0.0083,-0.0079,-0.0106,-0.0137,-0.0151,-0.0128,-0.0162,-0.0163,-0.0164,-0.0165,-0.0166,-0.0167,0,0,0.0126,0.0138,0.0147,0.0176,0.0167,0.0183,0.0197,0.0211,0.0243,0.0181,0.0213,0.0147,0.0105,0.0088,0.0034,0.0001,-0.0023,-0.0055,-0.0059,-0.0073,-0.0087,-0.01,-0.0104,-0.0058,-0.0057,-0.0057,-0.0121,0,0.0188,0.0251,0.0235,0.0303,0.0339,0.031,0.0337,0.0336,0.0322,0.0334,0.0261,0.0257,0.0161,0.0151,0.0102,0.002,-0.0022,-0.0002,-0.0117,-0.0119,-0.0125,-0.0104,-0.0052,-0.0104,-0.0122,-0.0123,-0.0123,0,0.0259,0.0295,0.0375,0.0425,0.044,0.0469,0.0525,0.0542,0.0533,0.052,0.0487,0.0418,0.0366,0.027,0.0142,0.0158,0.0045,-0.0037,-0.0042,-0.0071,-0.0134,-0.0131,-0.0106,-0.0339,-0.0126,-0.0126,-0.0125,0,0.0347,0.0401,0.0479,0.0494,0.0532,0.0574,0.0596,0.061,0.0654,0.0642,0.0659,0.0571,0.0546,0.039,0.0203,0.0172,0.0059,-0.0007,-0.0126,-0.0129,-0.0113,-0.0115,-0.0312,-0.0102,-0.0102,-0.0102,-0.0102,0,0.0434,0.0497,0.0532,0.0578,0.0685,0.0672,0.0782,0.0788,0.0817,0.0902,0.0765,0.0801,0.0573,0.0467,0.0267,0.0084,0.0104,-0.01,-0.0139,-0.009,-0.0089,-0.0314,-0.0442,-0.0105,-0.0104,-0.0104,-0.0103,0,0.0522,0.0541,0.0638,0.0701,0.0734,0.0813,0.0903,0.0974,0.098,0.1082,0.1079,0.099,0.0864,0.0619,0.0394,0.0197,-0.0122,-0.0079,-0.0006,-0.0035,-0.0374,-0.0497,-0.0707,-0.0814,-0.0219,-0.022,-0.022,0,0.0571,0.0633,0.074,0.0808,0.0847,0.0953,0.103,0.1065,0.1153,0.1216,0.128,0.1179,0.1161,0.081,0.045,0.0116,-0.0121,-0.0085,-0.0144,-0.0372,-0.054,-0.0635,-0.0717,-0.0105,-0.0104,-0.0104,-0.0104,0,0.0672,0.0713,0.079,0.0929,0.103,0.1147,0.1264,0.136,0.1428,0.1525,0.1638,0.1627,0.1299,0.0999,0.0515,0.0267,-0.0232,-0.0088,-0.034,-0.047,-0.0569,-0.0695,-0.0096,-0.01,-0.01,-0.0101,-0.0101,-0.0101,0.075,0.082,0.0922,0.1057,0.1173,0.1327,0.1447,0.1589,0.1767,0.1939,0.1923,0.1985,0.1515,0.0876,0.0477,-0.02,-0.0232,-0.0407,-0.0539,-0.0615,-0.0719,-0.0111,-0.0153,-0.0154,-0.0154,-0.0155,-0.0155,0,0.0832,0.0909,0.1038,0.1196,0.1333,0.1381,0.1592,0.1731,0.1972,0.2167,0.2289,0.2162,0.1543,0.0893,-0.002,-0.0543,-0.0742,-0.0836,-0.097,-0.1035,-0.0498,-0.0494,-0.0592,-0.0592,-0.0591,-0.0591,-0.0591,-0.0591,0.0879,0.1004,0.1065,0.1299,0.1415,0.1613,0.1742,0.1971,0.2165,0.2445,0.2561,0.2596,0.214,0.0451,-0.0727,-0.1012,-0.1374,-0.1447,-0.167,-0.132,-0.129,-0.1262,-0.1291,-0.1554,-0.1555,-0.2123,-0.2129,-0.2133]}],[{"header":{"parameterUnit":"m.s-1","parameterCategory":2,"la1":30.2991,"la2":30.254,"lo1":-89.0895,"lo2":-89.0444,"dy":0.0017,"dx":0.0017,"nx":28,"ny":28,"refTime":"2023-11-16T09:00:00:Z","depth":"2","parameterNumber":2,"parameterNumberName":"U-component_of_CURRENTS"},"data":[0,0,0,0,0,0,0,0,0,0,0,0,0,0,0,0,0,0,0,0,0,0,0,0,0,0,0,0,0,0,0,0,0,0,0,0,0,0,0,0,0,0,0,0,0,0,0,0,0,0,0,0,0,0,0,0,0,0,0.3455,0.3456,0,0.3509,0.351,0.351,0.3525,0.3525,0.3525,0.3525,0.3539,0.3539,0.3539,0,0,0,0,0,0,0,0,0,0,0,0,0,0.3364,0.3366,0.3455,0.3456,0.3457,0.3509,0.351,0.351,0.3525,0.3525,0.3525,0.3525,0.3538,0.3539,0.354,0,0,0,0,0,0,0,0,0,0,0,0,0,0.3407,0.3366,0.3455,0.3472,0.3475,0.3509,0.351,0.351,0.3525,0.3525,0.3525,0.3525,0.3538,0.3539,0.354,0.3546,0,0,0.3542,0.3542,0,0,0,0,0,0,0,0,0.3405,0.341,0.3469,0.3471,0.3474,0.3513,0.3483,0.3521,0.3525,0.3503,0.3525,0.3525,0.3528,0.3529,0.3537,0.3547,0.3547,0.3542,0.3542,0.3542,0.3542,0,0,0,0,0,0,0,0.3402,0.3408,0.3474,0.347,0.3473,0.3478,0.3484,0.349,0.3513,0.3505,0.3507,0.3517,0.3529,0.3536,0.3537,0.3547,0.3542,0.3542,0.3543,0.3543,0.364,0.3642,0,0,0,0,0,0,0.3401,0.3405,0.3472,0.3476,0.3441,0.348,0.3486,0.3498,0.3514,0.3517,0.3517,0.3518,0.3535,0.3536,0.3538,0.3605,0.3542,0.3543,0.3543,0.3638,0.3641,0.3643,0,0,0,0,0,0,0.3398,0.3406,0.347,0.3443,0.3452,0.3482,0.3495,0.3499,0.3523,0.3524,0.3526,0.3538,0.3535,0.3537,0.3572,0.3603,0.3543,0.3544,0.3635,0.3639,0.3642,0.3702,0,0,0,0,0,0,0.3396,0.3405,0.3418,0.3444,0.3454,0.3506,0.3496,0.3501,0.353,0.3531,0.3542,0.3543,0.3535,0.3572,0.3573,0.3603,0.3544,0.3633,0.3637,0.3641,0.3697,0.3707,0.3715,0,0,0,0,0,0.3392,0.3409,0.3419,0.3427,0.347,0.3507,0.3513,0.3531,0.3531,0.355,0.3565,0.3543,0.3599,0.3574,0.3575,0.3606,0.3631,0.3636,0.364,0.3693,0.3705,0.3715,0,0,0,0,0,0,0.3374,0.3414,0.3424,0.3452,0.3485,0.3511,0.3534,0.3543,0.3569,0.3575,0.3568,0.357,0.3617,0.3607,0.358,0.365,0.3612,0.3618,0.3652,0.3663,0.3672,0.3683,0.3545,0,0,0,0,0,0.3378,0.3405,0.344,0.3466,0.3486,0.3513,0.3532,0.3547,0.3572,0.3584,0.3592,0.3609,0.3637,0.3645,0.3666,0.3696,0.3704,0.372,0.3729,0.3736,0.3749,0.3802,0.3816,0.3659,0.3659,0.3659,0,0,0.3377,0.3405,0.3419,0.3465,0.3493,0.3527,0.3525,0.3565,0.3594,0.358,0.3625,0.3643,0.3655,0.37,0.3718,0.3693,0.3786,0.3743,0.3749,0.3758,0.3808,0.3824,0.3837,0.3663,0.3662,0.3661,0,0,0.3387,0.3419,0.3443,0.3476,0.3527,0.3549,0.3565,0.3604,0.3627,0.3669,0.3678,0.372,0.3743,0.3769,0.3781,0.3851,0.3838,0.3858,0.3903,0.3954,0.3967,0.3979,0.4004,0.4018,0.3854,0.3854,0.3854,0,0.3384,0.3422,0.3457,0.3491,0.3525,0.3561,0.3597,0.3628,0.3672,0.3705,0.3692,0.3775,0.3778,0.3848,0.3875,0.3871,0.3892,0.3856,0.3965,0.3977,0.3988,0.4011,0.4025,0.3858,0.3857,0.3857,0.3857,0,0.3409,0.3447,0.347,0.3527,0.3566,0.3609,0.3658,0.3703,0.3731,0.3761,0.3841,0.386,0.3912,0.392,0.3915,0.4003,0.3991,0.3975,0.3933,0.4007,0.4027,0.4041,0.3863,0.3862,0.386,0.386,0,0,0.338,0.3469,0.3476,0.3508,0.3594,0.362,0.3696,0.3771,0.3822,0.3868,0.3936,0.3991,0.4015,0.4032,0.4042,0.4079,0.4164,0.4063,0.4064,0.4081,0.4272,0.4226,0.4236,0.4172,0.4175,0.4177,0.4253,0,0.3392,0.3449,0.3502,0.3563,0.36,0.3675,0.3736,0.3809,0.3874,0.3948,0.3999,0.4063,0.4053,0.4086,0.4131,0.4165,0.4205,0.4145,0.4205,0.4207,0.4151,0.4252,0.3915,0.3952,0.4266,0.4268,0.4269,0,0.3392,0.3435,0.3495,0.3584,0.3609,0.3657,0.3775,0.3837,0.396,0.401,0.4103,0.4146,0.4236,0.4199,0.4307,0.4274,0.4287,0.4295,0.4298,0.4246,0.4187,0.3932,0.3965,0.4292,0.429,0.4288,0.4287,0,0.3335,0.3425,0.3472,0.3504,0.3612,0.3666,0.3735,0.3861,0.3926,0.4065,0.4122,0.4237,0.4292,0.4349,0.4391,0.4361,0.4488,0.444,0.441,0.4405,0.4125,0.4092,0.4514,0.4514,0.4514,0.4514,0.4514,0,0.3317,0.335,0.3449,0.3471,0.3535,0.3631,0.3721,0.3812,0.3949,0.4028,0.4149,0.4234,0.4335,0.442,0.4438,0.4483,0.4534,0.4447,0.4439,0.4137,0.4106,0.44,0.4385,0.4517,0.4516,0.4515,0.4515,0,0.3243,0.331,0.3361,0.3473,0.3509,0.3555,0.3697,0.3752,0.3902,0.4015,0.4064,0.4253,0.4378,0.4459,0.4557,0.4535,0.4577,0.457,0.4207,0.4156,0.4442,0.443,0.4548,0.4548,0.4547,0.4547,0.4546,0,0.321,0.3231,0.3333,0.3355,0.341,0.3494,0.3544,0.3707,0.3773,0.4019,0.4055,0.425,0.4348,0.4495,0.4505,0.4543,0.4599,0.4235,0.4121,0.4474,0.4454,0.4443,0.4432,0.376,0.3753,0.3748,0.3743,0,0.3145,0.3186,0.3223,0.3267,0.3316,0.3368,0.3464,0.3513,0.3704,0.3807,0.3965,0.4082,0.4266,0.4191,0.4277,0.4245,0.4207,0.4127,0.4597,0.3823,0.3743,0.372,0.3732,0.3694,0.3699,0.3703,0.3705,0.3707,0.3089,0.3089,0.313,0.3157,0.3202,0.3224,0.322,0.3329,0.3415,0.354,0.3756,0.3811,0.3912,0.3892,0.3801,0.3736,0.4023,0.3824,0.3835,0.3854,0.3768,0.3694,0.3618,0.3623,0.3626,0.363,0.3633,0,0.2984,0.2991,0.3012,0.3021,0.2996,0.308,0.3129,0.3094,0.312,0.3289,0.339,0.3207,0.3209,0.3297,0.3145,0.3177,0.308,0.303,0.2863,0.2918,0.2966,0.2828,0.2432,0.2428,0.2423,0.2419,0,0,0.2928,0.2885,0.2884,0.2801,0.2811,0.2736,0.273,0.2719,0.2779,0.2777,0.2796,0.3065,0.3218,0.2774,0.2745,0.2555,0.2692,0.245,0.3427,0.3287,0.3328,0.3462,0.3319,0,0,0,0,0]},{"header":{"parameterUnit":"m.s-1","parameterCategory":2,"la1":30.2991,"la2":30.254,"lo1":-89.0895,"lo2":-89.0444,"dy":0.0017,"dx":0.0017,"nx":28,"ny":28,"refTime":"2023-11-16T09:00:00:Z","depth":"2","parameterNumber":3,"parameterNumberName":"V-component_of_CURRENTS"},"data":[0,0,0,0,0,0,0,0,0,0,0,0,0,0,0,0,0,0,0,0,0,0,0,0,0,0,0,0,0,0,0,0,0,0,0,0,0,0,0,0,0,0,0,0,0,0,0,0,0,0,0,0,0,0,0,0,0,0,0.018,0.018,0,0.0101,0.01,0.0099,0.004,0.0039,0.0039,0.0039,-0.0027,-0.0028,-0.0029,0,0,0,0,0,0,0,0,0,0,0,0,0,0.0231,0.0231,0.018,0.018,0.0179,0.0101,0.01,0.0099,0.004,0.0039,0.0039,0.0038,-0.0026,-0.0028,-0.003,0,0,0,0,0,0,0,0,0,0,0,0,0,0.0185,0.0231,0.0181,0.0141,0.0137,0.0101,0.01,0.0098,0.004,0.0039,0.0039,0.0038,-0.0026,-0.0028,-0.003,-0.0032,0,0,-0.0036,-0.0037,0,0,0,0,0,0,0,0,0.0188,0.0183,0.0148,0.0144,0.0139,0.0081,0.0094,0.0056,0.004,0.0075,0.0039,0.0038,0.0012,0.0007,-0.0009,-0.0035,-0.0038,-0.0036,-0.0038,-0.0039,-0.0039,0,0,0,0,0,0,0,0.0191,0.0186,0.0147,0.0147,0.0142,0.0111,0.0104,0.0086,0.0047,0.0072,0.0068,0.0062,0.001,-0.0007,-0.0011,-0.0039,-0.0036,-0.0038,-0.004,-0.004,-0.0078,-0.0078,0,0,0,0,0,0,0.0208,0.0189,0.015,0.0145,0.0165,0.0111,0.0103,0.0099,0.0046,0.0038,0.0062,0.006,-0.0003,-0.0009,-0.0014,-0.0006,-0.0039,-0.0041,-0.0042,-0.0079,-0.0078,-0.0078,0,0,0,0,0,0,0.0209,0.0205,0.0153,0.0166,0.0158,0.0111,0.0107,0.0098,0.0083,0.0039,0.0031,0.0058,-0.0004,-0.0011,-0.0026,-0.001,-0.0041,-0.0043,-0.0079,-0.0079,-0.0078,0.0001,0,0,0,0,0,0,0.0211,0.0206,0.021,0.0168,0.0158,0.0144,0.0107,0.0097,0.0081,0.0077,0.0033,0.0026,-0.0005,-0.0023,-0.0028,-0.0013,-0.0045,-0.0079,-0.0079,-0.0078,-0.0002,0.0004,0.0009,0,0,0,0,0,0.0213,0.0228,0.0211,0.0206,0.0165,0.0145,0.0138,0.01,0.0082,0.0084,0.0049,0.0027,-0.0024,-0.0024,-0.0031,-0.0015,-0.008,-0.0079,-0.0078,-0.0004,0.0003,0.0009,0,0,0,0,0,0,0.0253,0.0222,0.0203,0.0207,0.0182,0.0136,0.0136,0.0109,0.0082,0.0079,0.0033,0.0024,0.0014,-0.0012,-0.0011,-0.0028,-0.0056,-0.0057,0.0002,0.0009,0.0014,0.0037,-0.0047,0,0,0,0,0,0.0265,0.0266,0.0229,0.0233,0.0225,0.0181,0.0169,0.0145,0.0114,0.0101,0.0069,0.0035,0.001,0.0002,-0.0026,-0.0028,-0.0065,-0.0025,-0.002,-0.0015,-0.0002,-0.005,-0.0047,-0.0076,-0.0076,-0.0076,0,0,0.0281,0.0264,0.0265,0.0241,0.0218,0.0221,0.0172,0.0163,0.0165,0.01,0.0096,0.0054,0.0012,0.0004,-0.0002,-0.0013,-0.0027,-0.0014,-0.0009,0.0001,-0.0049,-0.0046,-0.0044,-0.0076,-0.0076,-0.0076,0,0,0.0321,0.0302,0.0316,0.0302,0.0277,0.0255,0.0258,0.0217,0.02,0.0187,0.014,0.0108,0.0075,0.0045,0.0026,0.0047,0.0001,0.0039,0.0092,0.0045,0.0048,0.0049,0.0006,0.0003,0.0046,0.0046,0.0046,0,0.0342,0.0354,0.0319,0.0328,0.0329,0.0278,0.0299,0.0276,0.0235,0.0229,0.0199,0.0136,0.0094,0.0084,0.0085,0.0061,0.0029,0.0073,0.0054,0.0055,0.0055,0.001,0.0006,0.005,0.005,0.0049,0.0049,0,0.039,0.0399,0.0409,0.0408,0.0404,0.0414,0.0383,0.0375,0.0346,0.0316,0.0292,0.0225,0.0189,0.0167,0.0132,0.012,0.0094,0.0064,0.0042,0.0063,0.0014,0.0008,0.0056,0.0054,0.0053,0.0052,0,0,0.0443,0.0445,0.0448,0.0466,0.0449,0.0457,0.0464,0.0459,0.0473,0.0413,0.0418,0.0351,0.0305,0.0281,0.0226,0.0183,0.0145,0.0134,0.0129,0.01,0.0047,0.0029,0.002,0.0114,0.0113,0.0113,0.0012,0,0.0494,0.0538,0.0522,0.0572,0.0597,0.0563,0.0581,0.0566,0.0539,0.0528,0.0449,0.043,0.0354,0.0338,0.0281,0.0184,0.0134,0.0175,0.0023,0.0019,0.0007,0.0014,0.0055,-0.0031,0.0006,0.0005,0.0004,0,0.0551,0.0574,0.0632,0.0665,0.0674,0.0699,0.0724,0.0732,0.0698,0.0674,0.0627,0.0558,0.0491,0.0417,0.0264,0.0296,0.0182,0.0095,0.0089,0.0043,-0.001,-0.0047,-0.0043,-0.0006,-0.0005,-0.0005,-0.0004,0,0.0618,0.0655,0.0712,0.0721,0.0746,0.0774,0.0791,0.078,0.0805,0.0768,0.0771,0.0668,0.063,0.0475,0.0293,0.0277,0.0118,0.007,-0.0057,-0.006,-0.0069,-0.0071,-0.0046,-0.0046,-0.0045,-0.0045,-0.0045,0,0.0683,0.0727,0.0753,0.0784,0.0865,0.0853,0.0929,0.0923,0.093,0.098,0.0857,0.0865,0.0643,0.0521,0.0334,0.0133,0.0146,-0.0043,-0.0085,-0.0041,-0.0039,-0.0053,-0.0053,-0.0049,-0.0048,-0.0047,-0.0047,0,0.0744,0.0758,0.0828,0.0874,0.0901,0.0958,0.103,0.1078,0.107,0.1128,0.1123,0.1016,0.0862,0.0627,0.0382,0.0206,0.0001,-0.0079,-0.0008,-0.004,-0.0162,-0.0157,-0.0235,-0.0237,-0.0238,-0.0239,-0.024,0,0.0775,0.082,0.0901,0.0954,0.0982,0.1064,0.1127,0.1152,0.1214,0.1232,0.1273,0.1142,0.1076,0.0704,0.0374,0.0048,-0.0001,-0.0137,-0.0169,-0.0147,-0.0181,-0.0173,-0.0166,-0.0155,-0.0155,-0.0156,-0.0156,0,0.0837,0.0868,0.0924,0.1037,0.1119,0.1214,0.131,0.1383,0.1429,0.148,0.1526,0.1472,0.1127,0.0803,0.035,0.0137,-0.0084,-0.015,-0.0144,-0.0107,-0.0078,-0.0109,-0.0104,-0.0156,-0.0156,-0.0156,-0.0156,-0.0156,0.0882,0.0932,0.1013,0.1122,0.1222,0.1352,0.1447,0.1556,0.1679,0.1768,0.1719,0.165,0.1277,0.0703,0.0309,-0.01,-0.0083,-0.0231,-0.0228,-0.0225,-0.0191,-0.0166,-0.0254,-0.0254,-0.0255,-0.0255,-0.0255,0,0.0928,0.0991,0.1092,0.1222,0.1338,0.1388,0.1561,0.1659,0.1823,0.19,0.1936,0.1591,0.1211,0.077,0.0159,-0.0203,-0.0219,-0.0311,-0.0262,-0.0257,-0.0254,-0.022,-0.0292,-0.0293,-0.0294,-0.0296,0,0,0.0953,0.1049,0.1101,0.1294,0.1396,0.1563,0.167,0.1822,0.192,0.1999,0.1968,0.1886,0.1348,0.0899,0.0404,0.0043,-0.0016,-0.0012,0.0062,0.0186,0.0193,-0.0159,-0.0096,0,0,0,0,0]}],[{"header":{"parameterUnit":"m.s-1","parameterCategory":2,"la1":30.2991,"la2":30.254,"lo1":-89.0895,"lo2":-89.0444,"dy":0.0017,"dx":0.0017,"nx":28,"ny":28,"refTime":"2023-11-16T09:00:00:Z","depth":"4","parameterNumber":2,"parameterNumberName":"U-component_of_CURRENTS"},"data":[0,0,0,0,0,0,0,0,0,0,0,0,0,0,0,0,0,0,0,0,0,0,0,0,0,0,0,0,0,0,0,0,0,0,0,0,0,0,0,0,0,0,0,0,0,0,0,0,0,0,0,0,0,0,0,0,0,0,0.22,0.2201,0,0.2307,0.2308,0.2309,0.2395,0.2396,0.2397,0.2398,0.2511,0.2513,0.2515,0,0,0,0,0,0,0,0,0,0,0,0,0,0.2063,0.2065,0.22,0.2201,0.2203,0.2307,0.2308,0.2309,0.2395,0.2396,0.2398,0.2399,0.251,0.2513,0.2515,0,0,0,0,0,0,0,0,0,0,0,0,0,0.2139,0.2065,0.2199,0.226,0.2266,0.2306,0.2308,0.231,0.2395,0.2396,0.2398,0.24,0.251,0.2513,0.2515,0.2501,0,0,0.2525,0.2526,0,0,0,0,0,0,0,0,0.2135,0.2144,0.2249,0.2256,0.2263,0.2341,0.2301,0.2375,0.2394,0.2344,0.2399,0.24,0.2455,0.2463,0.2476,0.2506,0.2511,0.2525,0.2527,0.2528,0.2529,0,0,0,0,0,0,0,0.2129,0.214,0.224,0.2251,0.2259,0.228,0.2292,0.2315,0.2387,0.2348,0.2355,0.237,0.2459,0.2473,0.2479,0.2513,0.2525,0.2527,0.2529,0.253,0.2692,0.2694,0,0,0,0,0,0,0.212,0.2135,0.2236,0.2243,0.2204,0.2281,0.2295,0.2313,0.2387,0.2401,0.2369,0.2374,0.2467,0.2476,0.2483,0.2603,0.2528,0.2531,0.2532,0.2689,0.2692,0.2695,0,0,0,0,0,0,0.2116,0.2128,0.2232,0.2193,0.2208,0.2282,0.2301,0.2314,0.2378,0.2403,0.2417,0.2425,0.2468,0.2479,0.2556,0.2603,0.2532,0.2535,0.2686,0.269,0.2694,0.2757,0,0,0,0,0,0,0.2112,0.2126,0.2158,0.2192,0.221,0.2288,0.23,0.2315,0.2383,0.2392,0.2455,0.2464,0.2471,0.2552,0.2559,0.2606,0.2537,0.2683,0.2688,0.2692,0.2752,0.2763,0.2772,0,0,0,0,0,0.2107,0.2136,0.2159,0.2173,0.2245,0.2289,0.2301,0.2356,0.2384,0.2418,0.2471,0.2465,0.2587,0.2556,0.2564,0.2613,0.2681,0.2687,0.2692,0.2748,0.2761,0.2772,0,0,0,0,0,0,0.2097,0.2149,0.2175,0.2221,0.2268,0.2306,0.2352,0.2381,0.2448,0.2475,0.2494,0.2507,0.2594,0.2596,0.2561,0.2675,0.2634,0.2641,0.2674,0.2686,0.2696,0.2702,0.2539,0,0,0,0,0,0.2107,0.2148,0.2193,0.2238,0.2265,0.2316,0.2352,0.2389,0.244,0.2474,0.2516,0.2567,0.2613,0.2646,0.2685,0.274,0.2747,0.278,0.279,0.2798,0.281,0.2867,0.2883,0.2713,0.2713,0.2713,0,0,0.2115,0.2152,0.2177,0.224,0.2285,0.2329,0.2344,0.2412,0.246,0.2472,0.2569,0.2608,0.2639,0.2711,0.2749,0.2724,0.285,0.2805,0.2812,0.282,0.2874,0.2891,0.2905,0.2717,0.2717,0.2716,0,0,0.2136,0.219,0.2227,0.227,0.2345,0.2374,0.2403,0.2469,0.2519,0.2597,0.2628,0.2699,0.2765,0.2799,0.282,0.2908,0.2904,0.2928,0.298,0.3035,0.3049,0.3062,0.3084,0.3098,0.2929,0.2929,0.2929,0,0.215,0.2201,0.2246,0.2291,0.2339,0.2397,0.2447,0.2496,0.2583,0.2633,0.2644,0.2779,0.2803,0.2889,0.2925,0.293,0.2954,0.2927,0.3047,0.306,0.3071,0.3091,0.3105,0.2932,0.2932,0.2932,0.2931,0,0.2183,0.2243,0.2274,0.235,0.2402,0.2462,0.2526,0.2599,0.2665,0.2711,0.2831,0.2874,0.2956,0.2974,0.2977,0.3081,0.3069,0.3054,0.3011,0.3092,0.3107,0.3121,0.2938,0.2936,0.2935,0.2934,0,0,0.216,0.2275,0.229,0.2338,0.2445,0.2482,0.2582,0.2676,0.275,0.2839,0.2933,0.302,0.3063,0.3091,0.3114,0.3158,0.3252,0.3151,0.3152,0.3162,0.3368,0.3165,0.316,0.3268,0.3271,0.3274,0.3342,0,0.2181,0.2264,0.2325,0.2417,0.2466,0.256,0.2638,0.2735,0.2826,0.2928,0.3002,0.3098,0.31,0.3156,0.3208,0.3251,0.3295,0.3234,0.3298,0.3299,0.31,0.3171,0.3284,0.3352,0.3355,0.3358,0.3359,0,0.2187,0.2247,0.2339,0.2455,0.2489,0.256,0.2709,0.2789,0.2938,0.3011,0.3128,0.3187,0.3297,0.3272,0.3393,0.3363,0.3382,0.3393,0.3396,0.3194,0.3121,0.3259,0.3384,0.3382,0.338,0.3378,0.3377,0,0.2129,0.2252,0.2329,0.2372,0.2511,0.2591,0.2681,0.283,0.2911,0.3083,0.3158,0.3289,0.3369,0.3432,0.3478,0.3457,0.3579,0.3542,0.3372,0.3357,0.349,0.3476,0.362,0.362,0.362,0.362,0.3619,0,0.2103,0.2169,0.2319,0.2358,0.2461,0.2576,0.2704,0.2813,0.2971,0.3059,0.3206,0.3284,0.342,0.35,0.3521,0.3488,0.3621,0.3392,0.3368,0.3514,0.3502,0.3499,0.3484,0.3622,0.3621,0.3621,0.3621,0,0.2024,0.2124,0.2217,0.238,0.2438,0.2518,0.2704,0.2777,0.2951,0.3076,0.3137,0.3318,0.342,0.3511,0.3607,0.3515,0.3516,0.3469,0.3623,0.3604,0.3244,0.3232,0.3274,0.3268,0.3262,0.3258,0.3254,0,0.1986,0.2031,0.2212,0.2267,0.2353,0.2488,0.2566,0.2753,0.2824,0.3064,0.3094,0.3271,0.3366,0.3329,0.3453,0.3468,0.3431,0.3394,0.331,0.324,0.3213,0.321,0.3206,0.3245,0.3244,0.3242,0.3241,0,0.1912,0.2001,0.2075,0.2186,0.2284,0.2369,0.2501,0.2533,0.2734,0.2912,0.2972,0.303,0.3134,0.3199,0.3235,0.3244,0.3395,0.3336,0.3346,0.3267,0.3205,0.3183,0.3186,0.3222,0.3225,0.3227,0.3228,0,0.1864,0.1891,0.1997,0.2075,0.2183,0.2213,0.2304,0.2376,0.2466,0.2713,0.2734,0.2924,0.3097,0.3086,0.3129,0.3116,0.3065,0.2944,0.2974,0.2996,0.2876,0.2754,0.262,0,0,0,0,0,0.1795,0.1801,0.1868,0.1932,0.2028,0.2088,0.2232,0.2322,0.2513,0.2477,0.2592,0.2675,0.2741,0.2851,0.2783,0.3028,0.3089,0.2936,0.2966,0.3117,0.3139,0.3024,0,0,0,0,0,0,0.1744,0.1802,0.1814,0.1792,0.1807,0.1885,0.197,0.2103,0.2091,0.2299,0.2349,0.2506,0.2615,0.2746,0.2728,0.276,0.2721,0.3059,0.3052,0.3104,0.3124,0.3142,0.3031,0,0,0,0,0]},{"header":{"parameterUnit":"m.s-1","parameterCategory":2,"la1":30.2991,"la2":30.254,"lo1":-89.0895,"lo2":-89.0444,"dy":0.0017,"dx":0.0017,"nx":28,"ny":28,"refTime":"2023-11-16T09:00:00:Z","depth":"4","parameterNumber":3,"parameterNumberName":"V-component_of_CURRENTS"},"data":[0,0,0,0,0,0,0,0,0,0,0,0,0,0,0,0,0,0,0,0,0,0,0,0,0,0,0,0,0,0,0,0,0,0,0,0,0,0,0,0,0,0,0,0,0,0,0,0,0,0,0,0,0,0,0,0,0,0,0.0171,0.0171,0,0.0116,0.0115,0.0114,0.0072,0.0072,0.0072,0.0072,0.0021,0.002,0.0019,0,0,0,0,0,0,0,0,0,0,0,0,0,0.0203,0.0203,0.0171,0.0171,0.017,0.0116,0.0115,0.0114,0.0072,0.0072,0.0072,0.0071,0.0021,0.002,0.0018,0,0,0,0,0,0,0,0,0,0,0,0,0,0.0172,0.0203,0.0171,0.0143,0.014,0.0116,0.0115,0.0114,0.0073,0.0072,0.0072,0.0071,0.0021,0.002,0.0018,0.0017,0,0,0.0013,0.0013,0,0,0,0,0,0,0,0,0.0173,0.017,0.0148,0.0145,0.0142,0.0101,0.0107,0.0082,0.0073,0.0097,0.0072,0.0071,0.0049,0.0045,0.0034,0.0014,0.0012,0.0013,0.0012,0.0011,0.0011,0,0,0,0,0,0,0,0.0176,0.0172,0.0148,0.0148,0.0144,0.0121,0.0116,0.0102,0.0076,0.0095,0.0092,0.0088,0.0047,0.0036,0.0033,0.0011,0.0013,0.0012,0.0011,0.001,-0.0018,-0.0018,0,0,0,0,0,0,0.0187,0.0175,0.015,0.0147,0.0158,0.0121,0.0115,0.0114,0.0075,0.0069,0.0088,0.0086,0.0039,0.0035,0.0031,0.0038,0.0011,0.001,0.0009,-0.0019,-0.0018,-0.0018,0,0,0,0,0,0,0.0188,0.0186,0.0152,0.016,0.0154,0.0121,0.012,0.0113,0.0105,0.007,0.0064,0.0087,0.0038,0.0033,0.0023,0.0036,0.0009,0.0008,-0.0019,-0.0019,-0.0018,0.0047,0,0,0,0,0,0,0.0189,0.0186,0.0192,0.0161,0.0154,0.0147,0.012,0.0112,0.0103,0.01,0.0067,0.0062,0.0038,0.0025,0.0021,0.0033,0.0006,-0.0019,-0.0019,-0.0018,0.0044,0.0049,0.0053,0,0,0,0,0,0.0191,0.0203,0.0193,0.019,0.0163,0.0148,0.0143,0.0116,0.0104,0.0106,0.0081,0.0063,0.0025,0.0024,0.0019,0.0031,-0.0019,-0.0019,-0.0018,0.0042,0.0048,0.0053,0,0,0,0,0,0,0.0221,0.0199,0.0188,0.0193,0.0176,0.0141,0.0143,0.0124,0.0105,0.0104,0.0068,0.0062,0.0056,0.0034,0.0034,0.0022,-0.0001,-0.0002,0.0046,0.0052,0.0056,0.0073,0.0005,0,0,0,0,0,0.0231,0.0235,0.0208,0.0214,0.0209,0.0177,0.0169,0.0152,0.013,0.0121,0.0097,0.0072,0.0053,0.0046,0.0025,0.0023,-0.001,0.0025,0.003,0.0034,0.0043,-0.0002,-0.0001,-0.0017,-0.0017,-0.0017,0,0,0.0245,0.0234,0.0236,0.0221,0.0206,0.0209,0.0171,0.0166,0.017,0.012,0.012,0.0089,0.0056,0.005,0.0046,0.0035,0.0021,0.0035,0.0039,0.0045,-0.0002,-0.0,0.0001,-0.0016,-0.0016,-0.0016,0,0,0.0276,0.0266,0.0279,0.0269,0.0253,0.0238,0.024,0.0211,0.02,0.0193,0.0157,0.0133,0.0109,0.0083,0.0068,0.0086,0.0046,0.0081,0.0121,0.0077,0.0078,0.0078,0.0039,0.0035,0.0085,0.0085,0.0085,0,0.0294,0.0306,0.0281,0.0289,0.0291,0.0256,0.0273,0.0257,0.0229,0.0224,0.0204,0.0157,0.0124,0.0114,0.0116,0.0097,0.0068,0.0105,0.0084,0.0083,0.0083,0.0042,0.0037,0.0088,0.0088,0.0087,0.0087,0,0.0329,0.034,0.0349,0.0352,0.0351,0.036,0.0339,0.0335,0.0317,0.0296,0.0279,0.0227,0.0199,0.0182,0.0155,0.014,0.0119,0.0095,0.0073,0.0088,0.0044,0.0038,0.0093,0.0091,0.009,0.009,0,0,0.0365,0.0374,0.0378,0.0395,0.0386,0.0394,0.0403,0.0401,0.0412,0.0371,0.0374,0.0324,0.029,0.027,0.0226,0.0185,0.0148,0.0146,0.0142,0.0113,0.0056,0.0042,0.0033,0.0122,0.0121,0.012,0.0027,0,0.0402,0.0438,0.0432,0.0476,0.0496,0.0475,0.0492,0.0484,0.0465,0.0457,0.0396,0.0383,0.0327,0.0315,0.0265,0.0181,0.0135,0.0176,0.0039,0.0035,0.0026,0.0027,0.0118,0.0022,0.002,0.0019,0.0018,0,0.044,0.0461,0.0511,0.0546,0.0554,0.058,0.0603,0.0613,0.0587,0.057,0.0534,0.0481,0.0423,0.0368,0.0234,0.0265,0.017,0.0095,0.009,0.0052,0.001,0.0001,0.0007,0.0008,0.0008,0.0009,0.001,0,0.0482,0.052,0.0569,0.0578,0.0608,0.0636,0.0657,0.0651,0.0672,0.0644,0.0646,0.0561,0.0528,0.0399,0.0245,0.0239,0.0089,0.0057,-0.0047,-0.0049,-0.0037,-0.0037,-0.0043,-0.0043,-0.0043,-0.0043,-0.0043,0,0.052,0.0561,0.0599,0.0625,0.0697,0.0697,0.0764,0.0763,0.0771,0.0804,0.0716,0.0709,0.0534,0.0423,0.0272,0.01,0.0106,-0.0038,-0.0074,-0.0008,-0.0003,-0.0042,-0.004,-0.0046,-0.0046,-0.0045,-0.0044,0,0.0552,0.0575,0.0638,0.0691,0.0721,0.0773,0.0846,0.0882,0.0884,0.0921,0.0918,0.0822,0.0678,0.049,0.0278,0.0148,-0.0025,-0.0091,0.0003,-0.0027,-0.0143,-0.0137,-0.0215,-0.0216,-0.0217,-0.0218,-0.0219,0,0.0567,0.0605,0.0693,0.0742,0.0775,0.0854,0.091,0.0942,0.0983,0.0989,0.1009,0.089,0.0799,0.0502,0.0289,-0.0001,-0.005,-0.0142,-0.0155,-0.0132,-0.016,-0.0152,-0.0145,-0.0221,-0.0221,-0.0221,-0.0222,0,0.0596,0.0635,0.0686,0.079,0.0868,0.0953,0.1036,0.1076,0.1113,0.1116,0.1085,0.0926,0.0761,0.0514,0.0288,0.0076,-0.0083,-0.0154,-0.0154,-0.0167,-0.014,-0.0165,-0.0157,-0.0225,-0.0225,-0.0224,-0.0224,0,0.0619,0.0659,0.0736,0.0828,0.093,0.1023,0.1066,0.1117,0.116,0.1165,0.1153,0.0971,0.0869,0.0553,0.0346,0.0136,0.007,-0.0007,-0.0016,-0.0014,0.0063,0.0127,0.0098,0,0,0,0,0,0.0632,0.0681,0.0766,0.0869,0.0971,0.1036,0.1136,0.1167,0.1209,0.12,0.1181,0.1027,0.0722,0.059,0.0377,0.0299,0.0018,0.0039,-0.0079,-0.0246,-0.0241,-0.0187,0,0,0,0,0,0,0.064,0.0717,0.076,0.0888,0.0965,0.1082,0.115,0.118,0.1176,0.1184,0.103,0.0962,0.0666,0.0847,0.0371,0.0307,0.0198,-0.0098,-0.0104,-0.0248,-0.0244,-0.0241,-0.0184,0,0,0,0,0]}]]